Voltar ao catálogo

FENGYUN 1C DEB

AtivoLEO
NORAD 32455·DEBRIS·🇨🇳 China

Lançado May 10, 1999 de Taiyuan Satellite Launch Center

Loading…

Próximas Passagens (próximas 24 horas)

TLE

AtualizadoSource: Space-Track

Época: Sep 13, 2026, 13:41 UTC

1 32455U 99025DBT 26256.57020455  .00001430  00000-0  90375-3 0  9998
2 32455 101.7231 166.8586 0230810 184.9300 174.9576 13.94152712682432

Acompanhe FENGYUN 1C DEB em tempo real com AllMySat

Download on the App Store